Time,TemperatureF,DewpointF,PressureIn,WindDirection,WindDirectionDegrees,WindSpeedMPH,WindSpeedGustMPH,Humidity,HourlyPrecipIn,Conditions,Clouds,dailyrainin,SoftwareType,DateUTC
2013-05-21 00:00:00,42.8,39.5,30.09,WSW,244,0.0,0.0,88,0.00,,---,0.19,VWS V13.01,2013-05-21 06:00:00,
2013-05-21 00:05:00,42.8,39.5,30.09,WSW,244,0.0,0.0,88,0.00,,---,0.00,VWS V13.01,2013-05-21 06:05:00,
2013-05-21 00:10:00,42.9,39.6,30.09,East,92,0.0,1.0,88,0.00,,---,0.00,VWS V13.01,2013-05-21 06:10:00,
2013-05-21 00:15:00,42.9,39.6,30.08,East,92,0.0,1.0,88,0.00,,---,0.00,VWS V13.01,2013-05-21 06:15:00,
2013-05-21 00:20:00,42.9,39.6,30.08,East,99,0.0,3.0,88,0.00,,---,0.00,VWS V13.01,2013-05-21 06:20:00,
2013-05-21 00:25:00,42.8,39.5,30.08,East,99,0.0,1.0,88,0.00,,---,0.00,VWS V13.01,2013-05-21 06:25:00,
2013-05-21 00:30:00,42.6,39.3,30.08,East,84,0.0,2.0,88,0.00,,---,0.00,VWS V13.01,2013-05-21 06:30:00,
2013-05-21 00:35:00,42.5,39.2,30.08,East,84,0.0,1.0,88,0.00,,---,0.00,VWS V13.01,2013-05-21 06:35:00,
2013-05-21 00:41:00,42.5,39.2,30.08,East,84,0.0,0.0,88,0.00,,---,0.00,VWS V13.01,2013-05-21 06:41:00,
2013-05-21 00:46:00,42.3,39.0,30.09,East,84,0.0,0.0,88,0.00,,---,0.00,VWS V13.01,2013-05-21 06:46:00,
2013-05-21 00:51:00,42.3,39.0,30.09,East,84,0.0,1.0,88,0.00,,---,0.00,VWS V13.01,2013-05-21 06:51:00,
2013-05-21 00:56:00,42.3,39.0,30.09,East,84,0.0,0.0,88,0.00,,---,0.00,VWS V13.01,2013-05-21 06:56:00,
2013-05-21 01:01:00,42.2,38.9,30.08,East,84,0.0,0.0,88,0.00,,---,0.00,VWS V13.01,2013-05-21 07:01:00,
2013-05-21 01:06:00,42.2,38.9,30.08,East,84,0.0,0.0,88,0.00,,---,0.00,VWS V13.01,2013-05-21 07:06:00,
2013-05-21 01:11:00,42.1,38.8,30.08,East,84,0.0,0.0,88,0.00,,---,0.00,VWS V13.01,2013-05-21 07:11:00,
2013-05-21 01:16:00,41.9,38.6,30.05,East,84,0.0,0.0,88,0.00,,---,0.00,VWS V13.01,2013-05-21 07:16:00,
2013-05-21 01:21:00,41.8,38.5,30.05,East,84,0.0,0.0,88,0.00,,---,0.00,VWS V13.01,2013-05-21 07:21:00,
2013-05-21 01:26:00,41.8,38.5,30.05,East,84,0.0,0.0,88,0.00,,---,0.00,VWS V13.01,2013-05-21 07:26:00,
2013-05-21 01:31:00,41.6,38.3,30.04,East,84,0.0,0.0,88,0.00,,---,0.00,VWS V13.01,2013-05-21 07:31:00,
2013-05-21 01:36:00,41.5,38.2,30.04,East,84,0.0,0.0,88,0.00,,---,0.00,VWS V13.01,2013-05-21 07:36:00,
2013-05-21 01:41:00,41.3,38.0,30.04,East,84,0.0,0.0,88,0.00,,---,0.00,VWS V13.01,2013-05-21 07:41:00,
2013-05-21 01:46:00,41.5,38.5,30.04,East,84,0.0,0.0,89,0.00,,---,0.00,VWS V13.01,2013-05-21 07:46:00,
2013-05-21 01:51:00,41.5,38.5,30.04,East,84,0.0,0.0,89,0.00,,---,0.00,VWS V13.01,2013-05-21 07:51:00,
2013-05-21 01:56:00,41.5,38.5,30.04,East,84,0.0,0.0,89,0.00,,---,0.00,VWS V13.01,2013-05-21 07:56:00,
2013-05-21 02:01:00,41.6,38.9,30.04,East,84,0.0,0.0,90,0.00,,---,0.00,VWS V13.01,2013-05-21 08:01:00,
2013-05-21 02:06:00,41.6,38.6,30.04,East,84,0.0,0.0,89,0.00,,---,0.00,VWS V13.01,2013-05-21 08:06:00,
2013-05-21 02:11:00,41.5,38.2,30.04,East,84,0.0,0.0,88,0.00,,---,0.00,VWS V13.01,2013-05-21 08:11:00,
2013-05-21 02:17:00,41.3,38.3,30.01,East,84,0.0,0.0,89,0.00,,---,0.00,VWS V13.01,2013-05-21 08:17:00,
2013-05-21 02:22:00,41.2,37.9,30.01,East,84,0.0,0.0,88,0.00,,---,0.00,VWS V13.01,2013-05-21 08:22:00,
2013-05-21 02:27:00,41.1,38.1,30.01,East,84,0.0,0.0,89,0.00,,---,0.00,VWS V13.01,2013-05-21 08:27:00,
2013-05-21 02:32:00,41.1,38.1,30.01,East,84,0.0,0.0,89,0.00,,---,0.00,VWS V13.01,2013-05-21 08:32:00,
2013-05-21 02:37:00,41.2,38.5,30.01,East,84,0.0,0.0,90,0.00,,---,0.00,VWS V13.01,2013-05-21 08:37:00,
2013-05-21 02:42:00,41.2,38.2,30.01,East,84,0.0,0.0,89,0.00,,---,0.00,VWS V13.01,2013-05-21 08:42:00,
2013-05-21 02:47:00,41.1,38.1,30.00,East,84,0.0,0.0,89,0.00,,---,0.00,VWS V13.01,2013-05-21 08:47:00,
2013-05-21 02:52:00,41.1,38.4,30.00,East,84,0.0,0.0,90,0.00,,---,0.00,VWS V13.01,2013-05-21 08:52:00,
2013-05-21 02:57:00,40.9,37.9,30.00,East,84,0.0,0.0,89,0.00,,---,0.00,VWS V13.01,2013-05-21 08:57:00,
2013-05-21 03:02:00,40.6,37.6,30.00,East,84,0.0,0.0,89,0.00,,---,0.00,VWS V13.01,2013-05-21 09:02:00,
2013-05-21 03:07:00,40.6,37.9,30.00,East,84,0.0,0.0,90,0.00,,---,0.00,VWS V13.01,2013-05-21 09:07:00,
2013-05-21 03:13:00,40.8,38.1,30.00,East,84,0.0,0.0,90,0.00,,---,0.00,VWS V13.01,2013-05-21 09:13:00,
2013-05-21 03:18:00,40.9,38.2,30.00,East,84,0.0,0.0,90,0.00,,---,0.00,VWS V13.01,2013-05-21 09:18:00,
2013-05-21 03:23:00,40.9,38.5,30.00,East,84,0.0,0.0,91,0.00,,---,0.00,VWS V13.01,2013-05-21 09:23:00,
2013-05-21 03:28:00,41.1,38.7,30.00,East,84,0.0,0.0,91,0.00,,---,0.00,VWS V13.01,2013-05-21 09:28:00,
2013-05-21 03:33:00,40.9,38.5,30.00,East,84,0.0,0.0,91,0.00,,---,0.00,VWS V13.01,2013-05-21 09:33:00,
2013-05-21 03:38:00,40.9,38.5,30.00,East,84,0.0,0.0,91,0.00,,---,0.00,VWS V13.01,2013-05-21 09:38:00,
2013-05-21 03:43:00,40.9,38.5,30.00,East,84,0.0,0.0,91,0.00,,---,0.00,VWS V13.01,2013-05-21 09:43:00,
2013-05-21 03:48:00,40.8,38.1,29.99,East,84,0.0,0.0,90,0.00,,---,0.00,VWS V13.01,2013-05-21 09:48:00,
2013-05-21 03:53:00,40.8,38.4,29.99,East,84,0.0,0.0,91,0.00,,---,0.00,VWS V13.01,2013-05-21 09:53:00,
2013-05-21 03:58:00,40.8,38.4,29.99,East,84,0.0,0.0,91,0.00,,---,0.00,VWS V13.01,2013-05-21 09:58:00,
2013-05-21 04:03:00,40.8,38.4,29.99,East,84,0.0,0.0,91,0.00,,---,0.00,VWS V13.01,2013-05-21 10:03:00,
2013-05-21 04:09:00,40.6,37.9,29.99,East,84,0.0,0.0,90,0.00,,---,0.00,VWS V13.01,2013-05-21 10:09:00,
2013-05-21 04:14:00,40.5,37.8,29.99,East,84,0.0,0.0,90,0.00,,---,0.00,VWS V13.01,2013-05-21 10:14:00,
2013-05-21 04:19:00,40.3,37.6,29.96,East,84,0.0,0.0,90,0.00,,---,0.00,VWS V13.01,2013-05-21 10:19:00,
2013-05-21 04:24:00,40.2,37.5,29.96,East,84,0.0,0.0,90,0.00,,---,0.00,VWS V13.01,2013-05-21 10:24:00,
2013-05-21 04:29:00,40.1,37.4,29.96,East,84,0.0,0.0,90,0.00,,---,0.00,VWS V13.01,2013-05-21 10:29:00,
2013-05-21 04:34:00,39.9,37.2,29.96,East,84,0.0,0.0,90,0.00,,---,0.00,VWS V13.01,2013-05-21 10:34:00,
2013-05-21 04:39:00,39.8,37.1,29.96,East,84,0.0,0.0,90,0.00,,---,0.00,VWS V13.01,2013-05-21 10:39:00,
2013-05-21 04:44:00,39.8,37.1,29.96,East,84,0.0,0.0,90,0.00,,---,0.00,VWS V13.01,2013-05-21 10:44:00,
2013-05-21 04:49:00,39.6,36.9,29.96,East,84,0.0,0.0,90,0.00,,---,0.00,VWS V13.01,2013-05-21 10:49:00,
2013-05-21 04:54:00,39.5,36.8,29.96,East,84,0.0,0.0,90,0.00,,---,0.00,VWS V13.01,2013-05-21 10:54:00,
2013-05-21 04:59:00,39.5,37.1,29.96,East,84,0.0,0.0,91,0.00,,---,0.00,VWS V13.01,2013-05-21 10:59:00,
2013-05-21 05:04:00,39.3,36.9,29.96,East,84,0.0,0.0,91,0.00,,---,0.00,VWS V13.01,2013-05-21 11:04:00,
2013-05-21 05:09:00,39.3,36.9,29.96,East,84,0.0,0.0,91,0.00,,---,0.00,VWS V13.01,2013-05-21 11:09:00,
2013-05-21 05:14:00,39.3,36.9,29.96,East,84,0.0,0.0,91,0.00,,---,0.00,VWS V13.01,2013-05-21 11:14:00,
2013-05-21 05:20:00,39.3,36.9,29.96,East,84,0.0,0.0,91,0.00,,---,0.00,VWS V13.01,2013-05-21 11:20:00,
2013-05-21 05:25:00,39.3,36.9,29.96,East,84,0.0,0.0,91,0.00,,---,0.00,VWS V13.01,2013-05-21 11:25:00,
2013-05-21 05:30:00,39.3,36.9,29.96,East,84,0.0,0.0,91,0.00,,---,0.00,VWS V13.01,2013-05-21 11:30:00,
2013-05-21 05:35:00,39.3,36.9,29.96,East,84,0.0,0.0,91,0.00,,---,0.00,VWS V13.01,2013-05-21 11:35:00,
2013-05-21 05:40:00,39.1,36.7,29.96,East,84,0.0,0.0,91,0.00,,---,0.00,VWS V13.01,2013-05-21 11:40:00,
2013-05-21 05:45:00,38.9,36.5,29.95,East,84,0.0,0.0,91,0.00,,---,0.00,VWS V13.01,2013-05-21 11:45:00,
2013-05-21 05:50:00,38.8,36.4,29.95,East,84,0.0,0.0,91,0.00,,---,0.00,VWS V13.01,2013-05-21 11:50:00,
2013-05-21 05:55:00,38.6,36.2,29.95,East,84,0.0,0.0,91,0.00,,---,0.00,VWS V13.01,2013-05-21 11:55:00,
2013-05-21 06:00:00,38.6,36.2,29.95,East,84,0.0,0.0,91,0.00,,---,0.00,VWS V13.01,2013-05-21 12:00:00,
2013-05-21 06:05:00,38.8,36.4,29.95,East,84,0.0,0.0,91,0.00,,---,0.00,VWS V13.01,2013-05-21 12:05:00,
2013-05-21 06:10:00,38.8,36.4,29.95,East,84,0.0,0.0,91,0.00,,---,0.00,VWS V13.01,2013-05-21 12:10:00,
2013-05-21 06:15:00,38.6,36.2,30.00,East,84,0.0,0.0,91,0.00,,---,0.00,VWS V13.01,2013-05-21 12:15:00,
2013-05-21 06:21:00,38.6,36.2,30.00,East,84,0.0,0.0,91,0.00,,---,0.00,VWS V13.01,2013-05-21 12:21:00,
2013-05-21 06:26:00,38.6,36.2,30.00,East,84,0.0,0.0,91,0.00,,---,0.00,VWS V13.01,2013-05-21 12:26:00,
2013-05-21 06:31:00,38.6,36.2,30.00,East,84,0.0,0.0,91,0.00,,---,0.00,VWS V13.01,2013-05-21 12:31:00,
2013-05-21 06:36:00,38.8,36.7,30.00,East,84,0.0,0.0,92,0.00,,---,0.00,VWS V13.01,2013-05-21 12:36:00,
2013-05-21 06:41:00,38.6,36.5,30.00,East,84,0.0,0.0,92,0.00,,---,0.00,VWS V13.01,2013-05-21 12:41:00,
2013-05-21 06:46:00,38.6,36.5,30.00,East,84,0.0,0.0,92,0.00,,---,0.00,VWS V13.01,2013-05-21 12:46:00,
2013-05-21 06:51:00,38.6,36.5,30.00,East,84,0.0,0.0,92,0.00,,---,0.00,VWS V13.01,2013-05-21 12:51:00,
2013-05-21 06:56:00,38.8,36.7,30.00,East,84,0.0,0.0,92,0.00,,---,0.00,VWS V13.01,2013-05-21 12:56:00,
2013-05-21 07:01:00,38.9,36.8,29.99,East,84,0.0,0.0,92,0.00,,---,0.00,VWS V13.01,2013-05-21 13:01:00,
2013-05-21 07:06:00,39.3,37.2,29.99,East,84,0.0,0.0,92,0.00,,---,0.00,VWS V13.01,2013-05-21 13:06:00,
2013-05-21 07:11:00,39.5,37.4,29.99,East,84,0.0,0.0,92,0.00,,---,0.00,VWS V13.01,2013-05-21 13:11:00,
2013-05-21 07:16:00,39.6,37.5,30.00,East,84,0.0,0.0,92,0.00,,---,0.00,VWS V13.01,2013-05-21 13:16:00,
2013-05-21 07:21:00,39.9,37.8,30.00,East,84,0.0,0.0,92,0.00,,---,0.00,VWS V13.01,2013-05-21 13:21:00,
2013-05-21 07:26:00,40.1,38.0,30.00,East,84,0.0,0.0,92,0.00,,---,0.00,VWS V13.01,2013-05-21 13:26:00,
2013-05-21 07:31:00,40.3,38.2,29.99,East,84,0.0,0.0,92,0.00,,---,0.00,VWS V13.01,2013-05-21 13:31:00,
2013-05-21 07:36:00,40.8,38.9,29.99,East,84,0.0,0.0,93,0.00,,---,0.00,VWS V13.01,2013-05-21 13:36:00,
2013-05-21 07:41:00,41.1,39.2,29.99,East,84,0.0,0.0,93,0.00,,---,0.00,VWS V13.01,2013-05-21 13:41:00,
2013-05-21 07:46:00,41.2,39.3,29.99,East,84,0.0,0.0,93,0.00,,---,0.00,VWS V13.01,2013-05-21 13:46:00,
2013-05-21 07:51:00,41.3,39.4,29.99,East,84,0.0,0.0,93,0.00,,---,0.00,VWS V13.01,2013-05-21 13:51:00,
2013-05-21 07:57:00,41.6,39.7,29.99,East,84,0.0,0.0,93,0.00,,---,0.00,VWS V13.01,2013-05-21 13:57:00,
2013-05-21 08:02:00,41.8,39.9,29.98,East,84,0.0,0.0,93,0.00,,---,0.00,VWS V13.01,2013-05-21 14:02:00,
2013-05-21 08:07:00,41.9,40.0,29.98,East,84,0.0,0.0,93,0.00,,---,0.00,VWS V13.01,2013-05-21 14:07:00,
2013-05-21 08:12:00,42.2,40.3,29.98,East,84,0.0,0.0,93,0.00,,---,0.00,VWS V13.01,2013-05-21 14:12:00,
2013-05-21 08:17:00,42.3,40.4,30.01,East,84,0.0,0.0,93,0.00,,---,0.00,VWS V13.01,2013-05-21 14:17:00,
2013-05-21 08:22:00,42.6,40.7,30.01,East,84,0.0,0.0,93,0.00,,---,0.00,VWS V13.01,2013-05-21 14:22:00,
2013-05-21 08:27:00,42.8,40.9,30.01,NNE,28,0.0,0.0,93,0.00,,---,0.00,VWS V13.01,2013-05-21 14:27:00,
2013-05-21 08:32:00,43.1,41.2,29.99,NNE,28,0.0,0.0,93,0.00,,---,0.00,VWS V13.01,2013-05-21 14:32:00,
2013-05-21 08:38:00,43.2,41.3,29.99,NNE,28,0.0,0.0,93,0.00,,---,0.00,VWS V13.01,2013-05-21 14:38:00,
2013-05-21 08:43:00,43.5,41.6,29.99,NNE,28,0.0,0.0,93,0.00,,---,0.00,VWS V13.01,2013-05-21 14:43:00,
2013-05-21 08:48:00,44.1,42.2,29.99,NNE,17,0.0,0.0,93,0.00,,---,0.00,VWS V13.01,2013-05-21 14:48:00,
2013-05-21 08:53:00,44.6,42.4,29.99,NNE,18,0.0,0.0,92,0.00,,---,0.00,VWS V13.01,2013-05-21 14:53:00,
2013-05-21 08:58:00,45.2,43.0,29.99,NNE,18,0.0,0.0,92,0.00,,---,0.00,VWS V13.01,2013-05-21 14:58:00,
2013-05-21 09:03:00,46.0,42.7,29.97,WNW,294,1.0,1.0,88,0.00,,---,0.00,VWS V13.01,2013-05-21 15:03:00,
2013-05-21 09:08:00,46.8,43.4,29.97,North,5,0.0,3.0,88,0.00,,---,0.00,VWS V13.01,2013-05-21 15:08:00,
2013-05-21 09:13:00,47.6,44.2,29.97,North,5,0.0,1.0,88,0.00,,---,0.00,VWS V13.01,2013-05-21 15:13:00,
2013-05-21 09:18:00,48.2,44.5,29.97,North,5,0.0,1.0,87,0.00,,---,0.00,VWS V13.01,2013-05-21 15:18:00,
2013-05-21 09:23:00,48.5,43.3,29.97,North,5,0.0,1.0,82,0.00,,---,0.00,VWS V13.01,2013-05-21 15:23:00,
2013-05-21 09:28:00,48.6,44.0,29.97,North,5,1.0,1.0,84,0.00,,---,0.00,VWS V13.01,2013-05-21 15:28:00,
2013-05-21 09:33:00,48.9,43.7,29.96,North,5,0.0,1.0,82,0.00,,---,0.00,VWS V13.01,2013-05-21 15:33:00,
2013-05-21 09:39:00,49.1,43.2,29.96,North,5,1.0,2.0,80,0.00,,---,0.00,VWS V13.01,2013-05-21 15:39:00,
2013-05-21 09:44:00,49.2,43.3,29.96,North,5,0.0,2.0,80,0.00,,---,0.00,VWS V13.01,2013-05-21 15:44:00,
2013-05-21 09:49:00,49.5,43.6,29.95,North,5,0.0,2.0,80,0.00,,---,0.00,VWS V13.01,2013-05-21 15:49:00,
2013-05-21 09:54:00,49.8,43.6,29.95,North,5,0.0,2.0,79,0.00,,---,0.00,VWS V13.01,2013-05-21 15:54:00,
2013-05-21 09:59:00,50.2,43.6,29.95,North,5,0.0,1.0,78,0.00,,---,0.00,VWS V13.01,2013-05-21 15:59:00,
2013-05-21 10:04:00,50.5,43.6,29.94,ENE,69,0.0,4.0,77,0.00,,---,0.00,VWS V13.01,2013-05-21 16:04:00,
2013-05-21 10:09:00,51.1,44.5,29.94,ENE,69,0.0,2.0,78,0.00,,---,0.00,VWS V13.01,2013-05-21 16:09:00,
2013-05-21 10:14:00,51.7,44.0,29.94,WNW,284,0.0,2.0,75,0.00,,---,0.00,VWS V13.01,2013-05-21 16:14:00,
2013-05-21 10:19:00,52.5,43.4,29.93,North,355,0.0,2.0,71,0.00,,---,0.00,VWS V13.01,2013-05-21 16:19:00,
2013-05-21 10:24:00,53.2,44.4,29.93,NNW,340,0.0,1.0,72,0.00,,---,0.00,VWS V13.01,2013-05-21 16:24:00,
2013-05-21 10:29:00,54.1,43.8,29.93,NNW,340,0.0,1.0,68,0.00,,---,0.00,VWS V13.01,2013-05-21 16:29:00,
2013-05-21 10:34:00,55.1,43.2,29.91,North,5,0.0,2.0,64,0.00,,---,0.00,VWS V13.01,2013-05-21 16:34:00,
2013-05-21 10:39:00,55.7,44.1,29.91,ENE,67,2.0,3.0,65,0.00,,---,0.00,VWS V13.01,2013-05-21 16:39:00,
2013-05-21 10:44:00,56.5,44.1,29.91,NNW,345,0.0,2.0,63,0.00,,---,0.00,VWS V13.01,2013-05-21 16:44:00,
2013-05-21 10:50:00,57.2,44.3,29.90,NNE,28,0.0,1.0,62,0.00,,---,0.00,VWS V13.01,2013-05-21 16:50:00,
2013-05-21 10:55:00,58.1,44.3,29.90,NNW,342,1.0,2.0,60,0.00,,---,0.00,VWS V13.01,2013-05-21 16:55:00,
2013-05-21 11:00:00,58.9,44.2,29.88,West,261,3.0,3.0,58,0.00,,---,0.00,VWS V13.01,2013-05-21 17:00:00,
2013-05-21 11:05:00,59.0,43.8,29.88,North,355,0.0,3.0,57,0.00,,---,0.00,VWS V13.01,2013-05-21 17:05:00,
2013-05-21 11:10:00,59.6,44.8,29.88,ENE,65,1.0,3.0,58,0.00,,---,0.00,VWS V13.01,2013-05-21 17:10:00,
2013-05-21 11:15:00,60.9,46.5,29.86,NNE,28,0.0,2.0,59,0.00,,---,0.00,VWS V13.01,2013-05-21 17:15:00,
2013-05-21 11:20:00,62.1,45.8,29.86,West,275,2.0,3.0,55,0.00,,---,0.00,VWS V13.01,2013-05-21 17:20:00,
2013-05-21 11:25:00,62.4,46.0,29.86,West,278,0.0,4.0,55,0.00,,---,0.00,VWS V13.01,2013-05-21 17:25:00,
2013-05-21 11:30:00,62.4,46.0,29.85,NNE,24,0.0,2.0,55,0.00,,---,0.00,VWS V13.01,2013-05-21 17:30:00,
2013-05-21 11:35:00,63.2,46.8,29.85,NNE,24,1.0,2.0,55,0.00,,---,0.00,VWS V13.01,2013-05-21 17:35:00,
2013-05-21 11:40:00,63.7,44.7,29.85,NW,315,0.0,5.0,50,0.00,,---,0.00,VWS V13.01,2013-05-21 17:40:00,
2013-05-21 11:45:00,63.5,45.1,29.84,West,269,1.0,4.0,51,0.00,,---,0.00,VWS V13.01,2013-05-21 17:45:00,
2013-05-21 11:50:00,62.9,46.5,29.84,North,5,0.0,3.0,55,0.00,,---,0.00,VWS V13.01,2013-05-21 17:50:00,
2013-05-21 11:56:00,63.7,43.1,29.84,WSW,246,2.0,4.0,47,0.00,,---,0.00,VWS V13.01,2013-05-21 17:56:00,
2013-05-21 12:01:00,64.0,43.4,29.83,SW,236,2.0,4.0,47,0.00,,---,0.00,VWS V13.01,2013-05-21 18:01:00,
2013-05-21 12:06:00,64.2,44.7,29.83,WNW,291,0.0,3.0,49,0.00,,---,0.00,VWS V13.01,2013-05-21 18:06:00,
2013-05-21 12:11:00,64.8,43.6,29.83,SE,133,0.0,2.0,46,0.00,,---,0.00,VWS V13.01,2013-05-21 18:11:00,
2013-05-21 12:16:00,65.6,41.9,29.81,WNW,296,0.0,3.0,42,0.00,,---,0.00,VWS V13.01,2013-05-21 18:16:00,
2013-05-21 12:21:00,65.8,42.7,29.81,SW,230,0.0,3.0,43,0.00,,---,0.00,VWS V13.01,2013-05-21 18:21:00,
2013-05-21 12:26:00,65.3,42.8,29.81,West,263,1.0,2.0,44,0.00,,---,0.00,VWS V13.01,2013-05-21 18:26:00,
2013-05-21 12:31:00,65.3,44.6,29.81,WSW,242,2.0,4.0,47,0.00,,---,0.00,VWS V13.01,2013-05-21 18:31:00,
2013-05-21 12:36:00,65.3,45.1,29.81,WNW,285,1.0,1.0,48,0.00,,---,0.00,VWS V13.01,2013-05-21 18:36:00,
2013-05-21 12:41:00,65.5,41.8,29.81,West,275,0.0,0.0,42,0.00,,---,0.00,VWS V13.01,2013-05-21 18:41:00,
2013-05-21 12:46:00,66.4,41.4,29.79,WSW,244,4.0,4.0,40,0.00,,---,0.00,VWS V13.01,2013-05-21 18:46:00,
2013-05-21 12:51:00,66.3,43.8,29.79,WSW,254,0.0,1.0,44,0.00,,---,0.00,VWS V13.01,2013-05-21 18:51:00,
2013-05-21 12:56:00,66.3,43.8,29.79,North,355,1.0,2.0,44,0.00,,---,0.00,VWS V13.01,2013-05-21 18:56:00,
2013-05-21 13:01:00,66.9,41.2,29.79,NW,320,1.0,5.0,39,0.00,,---,0.00,VWS V13.01,2013-05-21 19:01:00,
2013-05-21 13:06:00,67.6,41.8,29.79,WNW,283,0.0,1.0,39,0.00,,---,0.00,VWS V13.01,2013-05-21 19:06:00,
2013-05-21 13:11:00,69.1,41.8,29.79,NE,40,1.0,1.0,37,0.00,,---,0.00,VWS V13.01,2013-05-21 19:11:00,
2013-05-21 13:16:00,70.8,44.6,29.75,NE,36,0.0,2.0,39,0.00,,---,0.00,VWS V13.01,2013-05-21 19:16:00,
2013-05-21 13:22:00,72.0,37.1,29.75,NNE,30,2.0,4.0,28,0.00,,---,0.00,VWS V13.01,2013-05-21 19:22:00,
2013-05-21 13:27:00,72.8,36.0,29.75,West,270,2.0,6.0,26,0.00,,---,0.00,VWS V13.01,2013-05-21 19:27:00,
2013-05-21 13:32:00,72.8,37.8,29.75,East,91,0.0,2.0,28,0.00,,---,0.00,VWS V13.01,2013-05-21 19:32:00,
2013-05-21 13:37:00,73.5,36.5,29.75,South,173,1.0,3.0,26,0.00,,---,0.00,VWS V13.01,2013-05-21 19:37:00,
2013-05-21 13:42:00,73.7,38.6,29.75,North,11,2.0,3.0,28,0.00,,---,0.00,VWS V13.01,2013-05-21 19:42:00,
2013-05-21 13:47:00,73.9,34.9,29.72,ENE,65,2.0,2.0,24,0.00,,---,0.00,VWS V13.01,2013-05-21 19:47:00,
2013-05-21 13:52:00,74.6,35.5,29.72,NE,50,1.0,6.0,24,0.00,,---,0.00,VWS V13.01,2013-05-21 19:52:00,
2013-05-21 13:57:00,75.3,35.0,29.72,North,11,0.0,1.0,23,0.00,,---,0.00,VWS V13.01,2013-05-21 19:57:00,
2013-05-21 14:02:00,75.8,34.3,29.72,ENE,71,3.0,4.0,22,0.00,,---,0.00,VWS V13.01,2013-05-21 20:02:00,
2013-05-21 14:08:00,76.0,39.6,29.72,East,83,0.0,1.0,27,0.00,,---,0.00,VWS V13.01,2013-05-21 20:08:00,
2013-05-21 14:13:00,76.1,37.8,29.72,NNE,22,1.0,4.0,25,0.00,,---,0.00,VWS V13.01,2013-05-21 20:13:00,
2013-05-21 14:18:00,76.3,35.8,29.71,NNE,12,1.0,3.0,23,0.00,,---,0.00,VWS V13.01,2013-05-21 20:18:00,
2013-05-21 14:23:00,76.1,39.7,29.71,ENE,69,0.0,6.0,27,0.00,,---,0.00,VWS V13.01,2013-05-21 20:23:00,
2013-05-21 14:28:00,75.8,34.3,29.71,East,91,1.0,5.0,22,0.00,,---,0.00,VWS V13.01,2013-05-21 20:28:00,
2013-05-21 14:33:00,75.3,31.5,29.70,NE,56,1.0,3.0,20,0.00,,---,0.00,VWS V13.01,2013-05-21 20:33:00,
2013-05-21 14:38:00,74.2,35.1,29.70,ENE,74,2.0,9.0,24,0.00,,---,0.00,VWS V13.01,2013-05-21 20:38:00,
2013-05-21 14:43:00,74.6,37.5,29.70,ENE,67,2.0,4.0,26,0.00,,---,0.00,VWS V13.01,2013-05-21 20:43:00,
2013-05-21 14:48:00,75.8,34.3,29.70,NNE,17,2.0,4.0,22,0.00,,---,0.00,VWS V13.01,2013-05-21 20:48:00,
2013-05-21 14:53:00,76.3,35.8,29.70,SSE,157,0.0,5.0,23,0.00,,---,0.00,VWS V13.01,2013-05-21 20:53:00,
2013-05-21 14:58:00,76.5,32.5,29.70,East,88,2.0,4.0,20,0.00,,---,0.00,VWS V13.01,2013-05-21 20:58:00,
2013-05-21 15:04:00,76.7,33.9,29.69,East,82,0.0,4.0,21,0.00,,---,0.00,VWS V13.01,2013-05-21 21:04:00,
2013-05-21 15:09:00,76.8,35.1,29.69,NW,304,1.0,5.0,22,0.00,,---,0.00,VWS V13.01,2013-05-21 21:09:00,
2013-05-21 15:14:00,77.0,35.3,29.69,NNE,17,0.0,4.0,22,0.00,,---,0.00,VWS V13.01,2013-05-21 21:14:00,
2013-05-21 15:19:00,77.9,33.6,29.68,East,82,2.0,3.0,20,0.00,,---,0.00,VWS V13.01,2013-05-21 21:19:00,
2013-05-21 15:24:00,78.8,30.4,29.68,North,355,2.0,12.0,17,0.00,,---,0.00,VWS V13.01,2013-05-21 21:24:00,
2013-05-21 15:29:00,78.5,28.6,29.68,North,360,1.0,4.0,16,0.00,,---,0.00,VWS V13.01,2013-05-21 21:29:00,
2013-05-21 15:34:00,78.1,32.5,29.68,NE,45,0.0,4.0,19,0.00,,---,0.00,VWS V13.01,2013-05-21 21:34:00,
2013-05-21 15:39:00,77.6,33.4,29.68,East,90,2.0,11.0,20,0.00,,---,0.00,VWS V13.01,2013-05-21 21:39:00,
2013-05-21 15:44:00,78.3,28.5,29.68,ENE,58,1.0,7.0,16,0.00,,---,0.00,VWS V13.01,2013-05-21 21:44:00,
2013-05-21 15:49:00,79.0,34.5,29.66,NE,50,0.0,3.0,20,0.00,,---,0.00,VWS V13.01,2013-05-21 21:49:00,
2013-05-21 15:54:00,79.2,30.7,29.66,NE,49,1.0,5.0,17,0.00,,---,0.00,VWS V13.01,2013-05-21 21:54:00,
2013-05-21 16:00:00,79.0,37.0,29.66,NE,56,0.0,1.0,22,0.00,,---,0.00,VWS V13.01,2013-05-21 22:00:00,
2013-05-21 16:05:00,78.5,35.4,29.65,ENE,65,0.0,3.0,21,0.00,,---,0.00,VWS V13.01,2013-05-21 22:05:00,
2013-05-21 16:10:00,76.5,36.0,29.65,WSW,241,0.0,4.0,23,0.00,,---,0.00,VWS V13.01,2013-05-21 22:10:00,
2013-05-21 16:15:00,74.0,32.8,29.67,ENE,69,0.0,3.0,22,0.00,,---,0.00,VWS V13.01,2013-05-21 22:15:00,
2013-05-21 16:20:00,73.2,38.2,29.67,NW,313,1.0,3.0,28,0.00,,---,0.00,VWS V13.01,2013-05-21 22:20:00,
2013-05-21 16:25:00,72.3,33.5,29.67,SE,145,0.0,2.0,24,0.00,,---,0.00,VWS V13.01,2013-05-21 22:25:00,
2013-05-21 16:30:00,71.8,30.9,29.67,East,80,0.0,5.0,22,0.00,,---,0.00,VWS V13.01,2013-05-21 22:30:00,
2013-05-21 16:35:00,72.8,32.9,29.67,NE,52,1.0,3.0,23,0.00,,---,0.00,VWS V13.01,2013-05-21 22:35:00,
2013-05-21 16:40:00,74.2,38.1,29.67,WSW,252,1.0,4.0,27,0.00,,---,0.00,VWS V13.01,2013-05-21 22:40:00,
2013-05-21 16:45:00,73.5,36.5,29.65,WSW,257,1.0,5.0,26,0.00,,---,0.00,VWS V13.01,2013-05-21 22:45:00,
2013-05-21 16:50:00,71.8,35.1,29.65,ENE,71,0.0,3.0,26,0.00,,---,0.00,VWS V13.01,2013-05-21 22:50:00,
2013-05-21 16:56:00,70.8,36.1,29.65,South,187,0.0,2.0,28,0.00,,---,0.00,VWS V13.01,2013-05-21 22:56:00,
2013-05-21 17:01:00,71.3,34.7,29.67,ENE,58,0.0,3.0,26,0.00,,---,0.00,VWS V13.01,2013-05-21 23:01:00,
2013-05-21 17:06:00,73.2,32.1,29.67,ENE,76,0.0,5.0,22,0.00,,---,0.00,VWS V13.01,2013-05-21 23:06:00,
2013-05-21 17:11:00,74.7,35.5,29.67,ENE,77,2.0,5.0,24,0.00,,---,0.00,VWS V13.01,2013-05-21 23:11:00,
2013-05-21 17:16:00,75.3,30.2,29.64,ENE,78,0.0,5.0,19,0.00,,---,0.00,VWS V13.01,2013-05-21 23:16:00,
2013-05-21 17:21:00,75.4,34.0,29.64,NE,49,0.0,3.0,22,0.00,,---,0.00,VWS V13.01,2013-05-21 23:21:00,
2013-05-21 17:26:00,74.4,34.2,29.64,NNE,26,0.0,5.0,23,0.00,,---,0.00,VWS V13.01,2013-05-21 23:26:00,
2013-05-21 17:31:00,72.8,36.9,29.64,NNE,26,0.0,0.0,27,0.00,,---,0.00,VWS V13.01,2013-05-21 23:31:00,
2013-05-21 17:36:00,71.3,38.3,29.64,North,350,0.0,1.0,30,0.00,,---,0.00,VWS V13.01,2013-05-21 23:36:00,
2013-05-21 17:41:00,70.3,31.8,29.64,NNE,16,0.0,2.0,24,0.00,,---,0.00,VWS V13.01,2013-05-21 23:41:00,
2013-05-21 17:46:00,69.3,35.7,29.66,South,183,0.0,5.0,29,0.00,,---,0.00,VWS V13.01,2013-05-21 23:46:00,
2013-05-21 17:51:00,68.8,33.5,29.66,ENE,57,0.0,3.0,27,0.00,,---,0.00,VWS V13.01,2013-05-21 23:51:00,
2013-05-21 17:56:00,68.6,33.3,29.66,SSE,163,0.0,1.0,27,0.00,,---,0.00,VWS V13.01,2013-05-21 23:56:00,
2013-05-21 18:01:00,67.9,29.8,29.67,WSW,237,2.0,2.0,24,0.00,,---,0.00,VWS V13.01,2013-05-22 00:01:00,
2013-05-21 18:06:00,67.6,30.6,29.67,North,5,0.0,2.0,25,0.00,,---,0.00,VWS V13.01,2013-05-22 00:06:00,
2013-05-21 18:11:00,67.4,31.4,29.67,SW,226,0.0,0.0,26,0.00,,---,0.00,VWS V13.01,2013-05-22 00:11:00,
2013-05-21 18:16:00,67.3,36.5,29.66,West,280,0.0,0.0,32,0.00,,---,0.00,VWS V13.01,2013-05-22 00:16:00,
2013-05-21 18:21:00,66.9,36.9,29.66,West,279,0.0,1.0,33,0.00,,---,0.00,VWS V13.01,2013-05-22 00:21:00,
2013-05-21 18:26:00,66.4,35.7,29.66,SW,231,0.0,0.0,32,0.00,,---,0.00,VWS V13.01,2013-05-22 00:26:00,
2013-05-21 18:31:00,65.8,36.7,29.67,WSW,240,0.0,0.0,34,0.00,,---,0.00,VWS V13.01,2013-05-22 00:31:00,
2013-05-21 18:36:00,65.3,37.0,29.67,South,184,0.0,0.0,35,0.00,,---,0.00,VWS V13.01,2013-05-22 00:36:00,
2013-05-21 18:41:00,65.0,35.2,29.67,NW,324,0.0,0.0,33,0.00,,---,0.00,VWS V13.01,2013-05-22 00:41:00,
2013-05-21 18:46:00,64.7,35.0,29.67,NW,325,0.0,0.0,33,0.00,,---,0.00,VWS V13.01,2013-05-22 00:46:00,
2013-05-21 18:52:00,64.3,38.2,29.67,NW,325,0.0,0.0,38,0.00,,---,0.00,VWS V13.01,2013-05-22 00:52:00,
2013-05-21 18:57:00,64.0,37.9,29.67,NW,325,0.0,0.0,38,0.00,,---,0.00,VWS V13.01,2013-05-22 00:57:00,
2013-05-21 19:02:00,63.7,37.6,29.68,NW,325,0.0,0.0,38,0.00,,---,0.00,VWS V13.01,2013-05-22 01:02:00,
2013-05-21 19:07:00,63.2,37.9,29.68,NW,325,0.0,0.0,39,0.00,,---,0.00,VWS V13.01,2013-05-22 01:07:00,
2013-05-21 19:12:00,62.7,38.7,29.68,NW,324,0.0,0.0,41,0.00,,---,0.00,VWS V13.01,2013-05-22 01:12:00,
2013-05-21 19:17:00,62.4,37.8,29.67,East,94,0.0,3.0,40,0.00,,---,0.00,VWS V13.01,2013-05-22 01:17:00,
2013-05-21 19:22:00,62.3,37.0,29.67,NE,55,0.0,2.0,39,0.00,,---,0.00,VWS V13.01,2013-05-22 01:22:00,
2013-05-21 19:27:00,62.4,35.8,29.67,ENE,78,2.0,6.0,37,0.00,,---,0.00,VWS V13.01,2013-05-22 01:27:00,
2013-05-21 19:32:00,62.4,37.8,29.67,ENE,78,0.0,3.0,40,0.00,,---,0.00,VWS V13.01,2013-05-22 01:32:00,
2013-05-21 19:37:00,62.3,38.9,29.67,NNE,33,2.0,2.0,42,0.00,,---,0.00,VWS V13.01,2013-05-22 01:37:00,
2013-05-21 19:42:00,62.0,36.8,29.67,NNE,13,0.0,1.0,39,0.00,,---,0.00,VWS V13.01,2013-05-22 01:42:00,
2013-05-21 19:48:00,61.8,36.6,29.69,NE,49,0.0,1.0,39,0.00,,---,0.00,VWS V13.01,2013-05-22 01:48:00,
2013-05-21 19:53:00,61.6,36.4,29.69,NE,35,1.0,1.0,39,0.00,,---,0.00,VWS V13.01,2013-05-22 01:53:00,
2013-05-21 19:58:00,61.5,37.6,29.69,NNE,24,0.0,0.0,41,0.00,,---,0.00,VWS V13.01,2013-05-22 01:58:00,
2013-05-21 20:03:00,61.0,38.4,29.68,NNE,24,0.0,0.0,43,0.00,,---,0.00,VWS V13.01,2013-05-22 02:03:00,
2013-05-21 20:08:00,60.2,38.8,29.68,NNE,24,0.0,0.0,45,0.00,,---,0.00,VWS V13.01,2013-05-22 02:08:00,
2013-05-21 20:13:00,59.8,39.5,29.68,West,271,0.0,1.0,47,0.00,,---,0.00,VWS V13.01,2013-05-22 02:13:00,
2013-05-21 20:18:00,59.3,39.6,29.66,West,271,0.0,0.0,48,0.00,,---,0.00,VWS V13.01,2013-05-22 02:18:00,
2013-05-21 20:23:00,59.0,40.4,29.66,West,271,0.0,0.0,50,0.00,,---,0.00,VWS V13.01,2013-05-22 02:23:00,
2013-05-21 20:28:00,58.6,41.0,29.66,West,271,0.0,0.0,52,0.00,,---,0.00,VWS V13.01,2013-05-22 02:28:00,
2013-05-21 20:33:00,58.1,41.6,29.66,West,271,0.0,0.0,54,0.00,,---,0.00,VWS V13.01,2013-05-22 02:33:00,
2013-05-21 20:38:00,57.6,41.6,29.66,West,271,0.0,0.0,55,0.00,,---,0.00,VWS V13.01,2013-05-22 02:38:00,
2013-05-21 20:44:00,57.3,40.8,29.66,West,271,0.0,0.0,54,0.00,,---,0.00,VWS V13.01,2013-05-22 02:44:00,
2013-05-21 20:49:00,57.0,39.6,29.68,NE,42,0.0,1.0,52,0.00,,---,0.00,VWS V13.01,2013-05-22 02:49:00,
2013-05-21 20:54:00,57.0,38.0,29.68,NNE,15,0.0,3.0,49,0.00,,---,0.00,VWS V13.01,2013-05-22 02:54:00,
2013-05-21 20:59:00,57.5,38.0,29.68,East,87,2.0,6.0,48,0.00,,---,0.00,VWS V13.01,2013-05-22 02:59:00,
2013-05-21 21:04:00,57.8,38.3,29.69,NE,34,0.0,3.0,48,0.00,,---,0.00,VWS V13.01,2013-05-22 03:04:00,
2013-05-21 21:09:00,58.0,39.5,29.69,NNE,13,1.0,4.0,50,0.00,,---,0.00,VWS V13.01,2013-05-22 03:09:00,
2013-05-21 21:14:00,58.0,39.5,29.69,North,5,1.0,3.0,50,0.00,,---,0.00,VWS V13.01,2013-05-22 03:14:00,
2013-05-21 21:19:00,57.8,39.8,29.68,NNE,26,1.0,3.0,51,0.00,,---,0.00,VWS V13.01,2013-05-22 03:19:00,
2013-05-21 21:24:00,57.5,40.0,29.68,NNE,32,0.0,3.0,52,0.00,,---,0.00,VWS V13.01,2013-05-22 03:24:00,
2013-05-21 21:29:00,57.2,40.2,29.68,ENE,78,3.0,3.0,53,0.00,,---,0.00,VWS V13.01,2013-05-22 03:29:00,
2013-05-21 21:35:00,56.7,40.3,29.69,ENE,72,0.0,0.0,54,0.00,,---,0.00,VWS V13.01,2013-05-22 03:35:00,
2013-05-21 21:40:00,56.5,40.5,29.69,ENE,71,0.0,1.0,55,0.00,,---,0.00,VWS V13.01,2013-05-22 03:40:00,
2013-05-21 21:45:00,56.0,41.0,29.68,ENE,72,0.0,0.0,57,0.00,,---,0.00,VWS V13.01,2013-05-22 03:45:00,
2013-05-21 21:50:00,55.4,41.8,29.68,ENE,71,0.0,0.0,60,0.00,,---,0.00,VWS V13.01,2013-05-22 03:50:00,
2013-05-21 21:55:00,54.8,42.0,29.68,ENE,71,0.0,0.0,62,0.00,,---,0.00,VWS V13.01,2013-05-22 03:55:00,
2013-05-21 22:00:00,54.2,41.5,29.69,ENE,71,0.0,0.0,62,0.00,,---,0.00,VWS V13.01,2013-05-22 04:00:00,
2013-05-21 22:01:00,54.2,41.5,29.69,ENE,71,0.0,0.0,62,0.00,,---,0.00,VWS V13.01,2013-05-22 04:01:00,
2013-05-21 22:02:00,54.1,41.0,29.69,ENE,71,0.0,0.0,61,0.00,,---,0.00,VWS V13.01,2013-05-22 04:02:00,
2013-05-21 22:03:00,53.9,41.2,29.69,ENE,72,0.0,0.0,62,0.00,,---,0.00,VWS V13.01,2013-05-22 04:03:00,
2013-05-21 22:06:00,53.8,41.1,29.69,ENE,72,0.0,0.0,62,0.00,,---,0.00,VWS V13.01,2013-05-22 04:06:00,
2013-05-21 22:11:00,53.5,39.5,29.69,ENE,72,0.0,0.0,59,0.00,,---,0.00,VWS V13.01,2013-05-22 04:11:00,
2013-05-21 22:16:00,53.1,39.2,29.65,ENE,72,0.0,0.0,59,0.00,,---,0.00,VWS V13.01,2013-05-22 04:16:00,
2013-05-21 22:21:00,52.6,38.3,29.65,ENE,72,0.0,0.0,58,0.00,,---,0.00,VWS V13.01,2013-05-22 04:21:00,
2013-05-21 22:26:00,52.6,35.5,29.65,ENE,72,0.0,0.0,52,0.00,,---,0.00,VWS V13.01,2013-05-22 04:26:00,
2013-05-21 22:31:00,52.9,34.8,29.65,ENE,72,0.0,0.0,50,0.00,,---,0.00,VWS V13.01,2013-05-22 04:31:00,
2013-05-21 22:36:00,53.3,33.6,29.65,ENE,72,0.0,0.0,47,0.00,,---,0.00,VWS V13.01,2013-05-22 04:36:00,
2013-05-21 22:41:00,53.6,33.9,29.65,ENE,78,0.0,0.0,47,0.00,,---,0.00,VWS V13.01,2013-05-22 04:41:00,
2013-05-21 22:47:00,53.8,33.0,29.65,ENE,78,0.0,1.0,45,0.00,,---,0.00,VWS V13.01,2013-05-22 04:47:00,
2013-05-21 22:52:00,53.8,33.5,29.65,ENE,78,0.0,0.0,46,0.00,,---,0.00,VWS V13.01,2013-05-22 04:52:00,
2013-05-21 22:57:00,53.8,34.6,29.65,ENE,78,0.0,0.0,48,0.00,,---,0.00,VWS V13.01,2013-05-22 04:57:00,
2013-05-21 23:02:00,53.6,33.9,29.64,ENE,78,0.0,0.0,47,0.00,,---,0.00,VWS V13.01,2013-05-22 05:02:00,
2013-05-21 23:07:00,53.3,34.1,29.64,ENE,78,0.0,0.0,48,0.00,,---,0.00,VWS V13.01,2013-05-22 05:07:00,
2013-05-21 23:12:00,53.2,34.0,29.64,ENE,78,0.0,0.0,48,0.00,,---,0.00,VWS V13.01,2013-05-22 05:12:00,
2013-05-21 23:17:00,52.9,34.3,29.62,ENE,78,0.0,0.0,49,0.00,,---,0.00,VWS V13.01,2013-05-22 05:17:00,
2013-05-21 23:22:00,52.6,36.0,29.62,NE,53,0.0,0.0,53,0.00,,---,0.00,VWS V13.01,2013-05-22 05:22:00,
2013-05-21 23:27:00,52.3,35.2,29.62,WNW,290,0.0,0.0,52,0.00,,---,0.00,VWS V13.01,2013-05-22 05:27:00,
2013-05-21 23:32:00,52.2,36.5,29.62,WNW,292,0.0,0.0,55,0.00,,---,0.00,VWS V13.01,2013-05-22 05:32:00,
2013-05-21 23:37:00,52.0,37.2,29.62,WNW,292,0.0,0.0,57,0.00,,---,0.00,VWS V13.01,2013-05-22 05:37:00,
2013-05-21 23:42:00,51.9,38.0,29.62,NNW,327,0.0,0.0,59,0.00,,---,0.00,VWS V13.01,2013-05-22 05:42:00,
2013-05-21 23:47:00,51.4,37.6,29.61,NNW,327,0.0,0.0,59,0.00,,---,0.00,VWS V13.01,2013-05-22 05:47:00,
2013-05-21 23:52:00,51.0,38.0,29.61,NNW,327,0.0,0.0,61,0.00,,---,0.00,VWS V13.01,2013-05-22 05:52:00,
2013-05-21 23:57:00,50.5,38.4,29.61,NNW,327,0.0,0.0,63,0.00,,---,0.00,VWS V13.01,2013-05-22 05:57:00,